TimeEDT,TemperatureF,Dew PointF,Humidity,Sea Level PressureIn,VisibilityMPH,Wind Direction,Wind SpeedMPH,Gust SpeedMPH,PrecipitationIn,Events,Conditions,WindDirDegrees,DateUTC
12:53 AM,71.1,57.0,61,29.93,10.0,North,9.2,-,N/A,,Mostly Cloudy,360,2013-07-25 04:53:00
1:53 AM,70.0,57.0,63,29.93,10.0,North,9.2,-,N/A,,Overcast,360,2013-07-25 05:53:00
2:53 AM,70.0,57.9,65,29.93,10.0,North,12.7,-,N/A,,Overcast,10,2013-07-25 06:53:00
3:53 AM,69.1,57.9,68,29.94,10.0,North,10.4,-,0.00,,Overcast,10,2013-07-25 07:53:00
4:53 AM,66.9,57.0,70,29.95,10.0,North,13.8,-,N/A,,Overcast,10,2013-07-25 08:53:00
5:53 AM,63.0,57.9,84,29.97,10.0,North,9.2,-,0.03,Rain,Light Rain,360,2013-07-25 09:53:00
6:11 AM,62.6,59.0,88,29.97,10.0,North,8.1,-,0.00,,Overcast,10,2013-07-25 10:11:00
6:53 AM,63.0,57.0,81,29.99,10.0,North,9.2,-,0.00,,Overcast,10,2013-07-25 10:53:00
7:53 AM,63.0,57.0,81,30.00,10.0,NNE,12.7,-,N/A,,Overcast,30,2013-07-25 11:53:00
8:53 AM,64.0,55.9,75,30.02,10.0,NNE,9.2,-,N/A,,Overcast,20,2013-07-25 12:53:00
9:53 AM,64.9,55.9,73,30.04,10.0,NNE,11.5,23.0,N/A,,Overcast,30,2013-07-25 13:53:00
10:53 AM,64.9,55.0,70,30.04,10.0,NNE,13.8,-,N/A,,Overcast,20,2013-07-25 14:53:00
11:53 AM,64.0,55.9,75,30.05,10.0,North,9.2,-,N/A,,Overcast,360,2013-07-25 15:53:00
12:53 PM,62.1,57.9,86,30.06,7.0,North,10.4,-,0.06,Rain,Light Rain,360,2013-07-25 16:53:00
1:10 PM,62.6,57.2,82,30.05,10.0,North,11.5,-,0.00,Rain,Light Rain,10,2013-07-25 17:10:00
1:53 PM,63.0,59.0,87,30.05,10.0,NNE,12.7,-,0.00,Rain,Light Rain,20,2013-07-25 17:53:00
2:53 PM,63.0,59.0,87,30.04,10.0,NNE,11.5,-,0.00,,Overcast,20,2013-07-25 18:53:00
3:53 PM,63.0,60.1,90,30.04,7.0,North,9.2,-,0.03,Rain,Light Rain,10,2013-07-25 19:53:00
4:53 PM,63.0,60.1,90,30.04,7.0,NNE,11.5,-,0.03,Rain,Light Rain,20,2013-07-25 20:53:00
5:24 PM,62.6,60.8,94,30.04,9.0,NNE,10.4,18.4,0.04,Rain,Light Rain,20,2013-07-25 21:24:00
5:53 PM,63.0,60.1,90,30.05,10.0,NNE,11.5,-,0.04,Rain,Light Rain,30,2013-07-25 21:53:00
6:09 PM,62.6,60.8,94,30.04,10.0,NNE,10.4,21.9,0.00,Rain,Light Rain,20,2013-07-25 22:09:00
6:35 PM,62.6,60.8,94,30.05,10.0,North,10.4,-,0.00,,Overcast,10,2013-07-25 22:35:00
6:53 PM,63.0,60.1,90,30.05,10.0,NNE,9.2,-,0.00,,Overcast,20,2013-07-25 22:53:00
7:23 PM,62.6,60.8,94,30.05,10.0,North,11.5,-,N/A,,Overcast,10,2013-07-25 23:23:00
7:53 PM,63.0,60.1,90,30.05,8.0,NNE,11.5,-,0.01,Rain,Light Rain,20,2013-07-25 23:53:00
8:21 PM,62.6,60.8,94,30.04,6.0,NNE,11.5,-,0.04,Rain,Light Rain,20,2013-07-26 00:21:00
8:53 PM,62.1,59.0,90,30.04,10.0,NNE,11.5,-,0.04,Rain,Light Rain,20,2013-07-26 00:53:00
9:53 PM,63.0,60.1,90,30.04,10.0,NNE,12.7,19.6,0.01,Rain,Light Rain,20,2013-07-26 01:53:00
10:53 PM,62.1,60.1,93,30.03,10.0,NNE,10.4,17.3,0.01,,Overcast,20,2013-07-26 02:53:00
11:53 PM,62.1,59.0,90,30.04,10.0,North,8.1,-,0.02,Rain,Light Rain,10,2013-07-26 03:53:00